| time (UTC) | temp F | wind direction | speed MPH | gust MPH | rain 1hr in | rain 24hr in | rain mn in | humidity % | barometer mb |
| 20260506232140 | 55 | 170 | 18.0 | 0.0 | 0.00 | 0.00 | 0.00 | 71 | |
| 20260506222411 | 57 | 170 | 20.0 | 31.0 | 0.00 | 0.00 | 0.00 | 67 | |
| 20260506212154 | 57 | 180 | 18.0 | 0.0 | 0.00 | 0.00 | 0.00 | 67 | |
| 20260506202211 | 59 | 170 | 18.0 | 0.0 | 0.00 | 0.00 | 0.00 | 62 | |
| 20260506192347 | 61 | 170 | 18.0 | 0.0 | 0.00 | 0.00 | 0.00 | 55 | |
| 20260506182244 | 61 | 170 | 18.0 | 33.0 | 0.00 | 0.00 | 0.00 | 55 | |
| 20260506172209 | 63 | 160 | 18.0 | 0.0 | 0.00 | 0.00 | 0.00 | 55 | |
| 20260506162410 | 63 | 170 | 18.0 | 29.0 | 0.00 | 0.00 | 0.00 | 51 | |
| 20260506152227 | 63 | 170 | 14.0 | 0.0 | 0.00 | 0.00 | 0.00 | 55 | |
| 20260506142155 | 64 | 180 | 16.0 | 0.0 | 0.00 | 0.00 | 0.00 | 52 | |
| 20260506132155 | 64 | 180 | 14.0 | 0.0 | 0.00 | 0.00 | 0.00 | 52 | |
| 20260506122154 | 66 | 200 | 16.0 | 0.0 | 0.00 | 0.00 | 0.00 | 42 | |
| 20260506112141 | 64 | 200 | 14.0 | 24.0 | 0.00 | 0.00 | 0.00 | 48 | |
| 20260506102342 | 61 | 200 | 14.0 | 0.0 | 0.00 | 0.00 | 0.00 | 59 | |
| 20260506092123 | 59 | 210 | 14.0 | 0.0 | 0.00 | 0.00 | 0.00 | 67 | |
| 20260506082139 | 57 | 220 | 16.0 | 0.0 | 0.00 | 0.00 | 0.00 | 67 | |
| 20260506072142 | 55 | 220 | 16.0 | 0.0 | 0.00 | 0.00 | 0.00 | 76 | |
| 20260506062213 | 54 | 210 | 16.0 | 0.0 | 0.00 | 0.00 | 0.00 | 76 | |
| 20260506042354 | 48 | 200 | 16.0 | 0.0 | 0.00 | 0.00 | 0.00 | 87 | |
| 20260506032141 | 50 | 200 | 18.0 | 0.0 | 0.00 | 0.00 | 0.00 | 76 | |
| 20260506022141 | 50 | 190 | 16.0 | 0.0 | 0.00 | 0.00 | 0.00 | 76 | |
| 20260506012242 | 52 | 190 | 16.0 | 0.0 | 0.00 | 0.00 | 0.00 | 71 | |
| 20260506002139 | 52 | 180 | 16.0 | 0.0 | 0.00 | 0.00 | 0.00 | 71 |